CZ-6A R/B

基本信息
目录编号:
66051
目录名称:
CZ-6A R/B
国际标识:
2025-233U
轨道中心:
EARTH
物体状态:
在轨
发射日期:
2025-10-17 UTC
国别:
中国 (CN)
轨道信息
数据来源: 国际轨道数据
星历时间: 2026-09-05T18:49:20+0800
半长轴: 7080.256km
偏心率: 0.0085851
轨道倾角: 89.037°
近地点辐角: 85.395°
升交点赤经: 30.751°
平近点角: 275.706°
近地点: 641.334km
远地点: 762.904km
周期: 98.817分钟
每日圈数: 14.572343
详细信息
发射场:
TSC
轨道高度:
LEO
数据来源:
AOE Integration Group
参考系:
TEME
时间系统:
UTC
历元类型:
SGP4
2D轨道图
3D轨道图
轨道高度分析图
轨道倾角分析图
轨道综合分析图
查看轨道综合分析图